When you browse on this site, cookies collect data to enhance your experience and personalize the content and advertising you see.
Visit our Privacy Policy to learn more. By continuing to use the site, you agree to this use of cookies and data.
  • In Romania
  • List of Countries
  • For 7 days
  • Water Temperature
  • Satellite Maps
  • Weather Map
  • Weather Widgets
  • user-avatar
    Login

    Hourly Weather La Massana

    Today, 22 March, Friday

    Time Temperature Precipitation Wind Pressure Humidity
    00:00 -1°C° 0 mm 1 mps 613 mmHg 57%
    01:00 -1°C° 0 mm 1 mps 613 mmHg 55%
    02:00 -1°C° 0 mm 1 mps 613 mmHg 53%
    03:00 -1°C° 0 mm 1 mps 613 mmHg 52%
    04:00 -1°C° 0 mm 1 mps 613 mmHg 52%
    05:00 -1°C° 0 mm 1 mps 613 mmHg 52%
    06:00 -1°C° 0 mm 1 mps 613 mmHg 53%
    07:00 +2°C° 0 mm 1 mps 614 mmHg 49%
    08:00 +5°C° 0 mm 1 mps 616 mmHg 45%
    09:00 +8°C° 0 mm 1 mps 617 mmHg 42%
    10:00 +9°C° 0 mm 1 mps 617 mmHg 40%
    11:00 +10°C° 0 mm 1 mps 618 mmHg 39%
    12:00 +11°C° 0 mm 1 mps 618 mmHg 38%
    13:00 +10°C° 0.1 mm 1 mps 618 mmHg 42%
    14:00 +10°C° 0.1 mm 1 mps 617 mmHg 46%
    15:00 +9°C° 0.1 mm 1 mps 616 mmHg 51%
    16:00 +7°C° 0.2 mm 0 mps 616 mmHg 56%
    17:00 +5°C° 0.2 mm 0 mps 615 mmHg 62%
    18:00 +4°C° 0.2 mm 0 mps 614 mmHg 67%
    19:00 +3°C° 0 mm 0 mps 614 mmHg 70%
    20:00 +2°C° 0 mm 0 mps 614 mmHg 73%
    21:00 +2°C° 0 mm 1 mps 614 mmHg 76%
    22:00 +2°C° 0 mm 1 mps 614 mmHg 76%
    23:00 +2°C° 0 mm 1 mps 614 mmHg 76%

    Tomorrow, 23 March, Saturday

    Time Temperature Precipitation Wind Pressure Humidity
    00:00 +1°C° 0 mm 1 mps 614 mmHg 77%
    01:00 +1°C° 0 mm 1 mps 614 mmHg 76%
    02:00 +1°C° 0 mm 1 mps 613 mmHg 75%
    03:00 +1°C° 0 mm 1 mps 613 mmHg 75%
    04:00 +1°C° 0 mm 1 mps 613 mmHg 74%
    05:00 +1°C° 0 mm 1 mps 613 mmHg 73%
    06:00 +1°C° 0 mm 1 mps 613 mmHg 72%
    07:00 +4°C° 0 mm 1 mps 614 mmHg 63%
    08:00 +6°C° 0 mm 1 mps 616 mmHg 53%
    09:00 +8°C° 0 mm 0 mps 617 mmHg 43%
    10:00 +9°C° 0 mm 0 mps 617 mmHg 40%
    11:00 +11°C° 0 mm 1 mps 618 mmHg 38%
    12:00 +13°C° 0 mm 1 mps 618 mmHg 35%
    13:00 +12°C° 0 mm 1 mps 617 mmHg 36%
    14:00 +12°C° 0 mm 1 mps 617 mmHg 38%
    15:00 +12°C° 0 mm 1 mps 616 mmHg 39%
    16:00 +10°C° 0 mm 1 mps 615 mmHg 47%
    17:00 +8°C° 0 mm 1 mps 614 mmHg 55%
    18:00 +6°C° 0 mm 1 mps 614 mmHg 64%
    19:00 +5°C° 0 mm 1 mps 613 mmHg 67%
    20:00 +4°C° 0 mm 1 mps 613 mmHg 71%
    21:00 +3°C° 0 mm 1 mps 613 mmHg 75%
    22:00 +3°C° 0 mm 1 mps 613 mmHg 74%
    23:00 +3°C° 0 mm 1 mps 613 mmHg 73%

    Day after tomorrow, 24 March, Sunday

    Time Temperature Precipitation Wind Pressure Humidity
    00:00 +3°C° 0 mm 1 mps 613 mmHg 72%
    01:00 +3°C° 0 mm 1 mps 613 mmHg 70%
    02:00 +3°C° 0 mm 1 mps 613 mmHg 68%
    03:00 +3°C° 0 mm 1 mps 613 mmHg 66%
    04:00 +3°C° 0 mm 1 mps 612 mmHg 64%
    05:00 +2°C° 0 mm 1 mps 612 mmHg 63%
    06:00 +2°C° 0 mm 1 mps 612 mmHg 61%
    07:00 +5°C° 0 mm 1 mps 614 mmHg 55%
    08:00 +7°C° 0 mm 1 mps 615 mmHg 48%
    09:00 +10°C° 0 mm 1 mps 616 mmHg 42%
    10:00 +11°C° 0 mm 1 mps 616 mmHg 41%
    11:00 +12°C° 0 mm 1 mps 617 mmHg 40%
    12:00 +13°C° 0 mm 1 mps 617 mmHg 39%
    13:00 +12°C° 0.1 mm 1 mps 616 mmHg 43%
    14:00 +11°C° 0.1 mm 1 mps 615 mmHg 47%
    15:00 +10°C° 0.1 mm 1 mps 615 mmHg 51%
    16:00 +9°C° 0.4 mm 1 mps 614 mmHg 60%
    17:00 +8°C° 0.4 mm 1 mps 614 mmHg 69%
    18:00 +6°C° 0.4 mm 1 mps 613 mmHg 77%
    19:00 +6°C° 0.1 mm 1 mps 613 mmHg 81%
    20:00 +5°C° 0.1 mm 1 mps 613 mmHg 86%
    21:00 +4°C° 0.1 mm 1 mps 613 mmHg 90%
    22:00 +4°C° 0 mm 1 mps 613 mmHg 91%
    23:00 +4°C° 0 mm 1 mps 613 mmHg 92%

    25 March, Monday

    Time Temperature Precipitation Wind Pressure Humidity
    00:00 +3°C° 0 mm 1 mps 612 mmHg 93%
    01:00 +3°C° 0 mm 1 mps 612 mmHg 93%
    02:00 +3°C° 0 mm 1 mps 612 mmHg 93%
    03:00 +2°C° 0 mm 1 mps 612 mmHg 94%
    04:00 +2°C° 0 mm 1 mps 611 mmHg 93%
    05:00 +2°C° 0 mm 1 mps 611 mmHg 92%
    06:00 +1°C° 0 mm 1 mps 611 mmHg 91%
    07:00 +3°C° 0 mm 1 mps 612 mmHg 79%
    08:00 +5°C° 0 mm 1 mps 613 mmHg 68%
    09:00 +8°C° 0 mm 1 mps 614 mmHg 56%
    10:00 +9°C° 0 mm 1 mps 615 mmHg 52%
    11:00 +10°C° 0 mm 1 mps 615 mmHg 49%
    12:00 +10°C° 0 mm 2 mps 615 mmHg 45%
    13:00 +10°C° 0 mm 2 mps 615 mmHg 49%
    14:00 +9°C° 0 mm 2 mps 614 mmHg 53%
    15:00 +8°C° 0 mm 2 mps 613 mmHg 57%
    16:00 +7°C° 0.1 mm 2 mps 613 mmHg 64%
    17:00 +6°C° 0.1 mm 2 mps 612 mmHg 72%
    18:00 +4°C° 0.1 mm 2 mps 611 mmHg 80%
    19:00 +3°C° 0 mm 2 mps 611 mmHg 83%
    20:00 +2°C° 0 mm 2 mps 611 mmHg 87%
    21:00 +2°C° 0 mm 2 mps 612 mmHg 91%
    22:00 +1°C° 0 mm 2 mps 611 mmHg 89%
    23:00 -1°C° 0 mm 2 mps 611 mmHg 87%

    26 March, Tuesday

    Time Temperature Precipitation Wind Pressure Humidity
    00:00 -2°C° 0 mm 2 mps 611 mmHg 85%
    01:00 -2°C° 0 mm 2 mps 611 mmHg 81%
    02:00 -2°C° 0 mm 2 mps 610 mmHg 77%
    03:00 -2°C° 0 mm 2 mps 610 mmHg 73%
    04:00 -2°C° 0 mm 2 mps 611 mmHg 73%
    05:00 -2°C° 0 mm 2 mps 611 mmHg 73%
    06:00 -2°C° 0 mm 2 mps 611 mmHg 73%
    07:00 +2°C° 0 mm 2 mps 612 mmHg 60%
    08:00 +5°C° 0 mm 2 mps 614 mmHg 48%
    09:00 +9°C° 0 mm 1 mps 616 mmHg 35%
    10:00 +10°C° 0 mm 1 mps 616 mmHg 32%
    11:00 +12°C° 0 mm 1 mps 617 mmHg 28%
    12:00 +13°C° 0 mm 1 mps 618 mmHg 24%
    13:00 +13°C° 0 mm 1 mps 617 mmHg 27%
    14:00 +12°C° 0 mm 1 mps 617 mmHg 30%
    15:00 +12°C° 0 mm 2 mps 617 mmHg 33%
    16:00 +10°C° 0 mm 1 mps 616 mmHg 42%
    17:00 +8°C° 0 mm 1 mps 615 mmHg 51%
    18:00 +6°C° 0 mm 1 mps 615 mmHg 61%
    19:00 +5°C° 0 mm 1 mps 615 mmHg 66%
    20:00 +4°C° 0 mm 1 mps 615 mmHg 72%
    21:00 +3°C° 0 mm 1 mps 615 mmHg 78%
    22:00 +2°C° 0 mm 1 mps 615 mmHg 80%
    23:00 +2°C° 0 mm 1 mps 615 mmHg 82%

    27 March, Wednesday

    Time Temperature Precipitation Wind Pressure Humidity
    00:00 +1°C° 0 mm 1 mps 615 mmHg 85%
    01:00 +1°C° 0 mm 1 mps 614 mmHg 85%
    02:00 +1°C° 0 mm 1 mps 614 mmHg 85%
    03:00 +1°C° 0 mm 1 mps 614 mmHg 86%
    04:00 +1°C° 0 mm 1 mps 614 mmHg 84%
    05:00 +1°C° 0 mm 1 mps 614 mmHg 83%
    06:00 +1°C° 0 mm 1 mps 614 mmHg 81%
    07:00 +4°C° 0 mm 1 mps 615 mmHg 68%
    08:00 +7°C° 0 mm 1 mps 617 mmHg 55%
    09:00 +10°C° 0 mm 1 mps 618 mmHg 41%
    10:00 +11°C° 0 mm 1 mps 619 mmHg 38%
    11:00 +12°C° 0 mm 1 mps 619 mmHg 34%
    12:00 +14°C° 0 mm 1 mps 619 mmHg 30%
    13:00 +13°C° 0 mm 1 mps 619 mmHg 32%
    14:00 +13°C° 0 mm 1 mps 618 mmHg 33%
    15:00 +13°C° 0 mm 1 mps 618 mmHg 34%
    16:00 +11°C° 0 mm 1 mps 617 mmHg 42%
    17:00 +9°C° 0 mm 1 mps 616 mmHg 50%
    18:00 +6°C° 0 mm 1 mps 615 mmHg 58%
    19:00 +5°C° 0 mm 1 mps 615 mmHg 62%
    20:00 +4°C° 0 mm 1 mps 614 mmHg 66%
    21:00 +2°C° 0 mm 1 mps 614 mmHg 69%
    22:00 +2°C° 0 mm 1 mps 614 mmHg 69%
    23:00 +2°C° 0 mm 1 mps 614 mmHg 68%
    Show more